GFSFLT1_con_3kmhel_228.txt.gz
Helicity
76 57 50 57 63 79 82 81 70 75 79 72 61 55 55 35 31 44 76 81 95 82 51 65 77 63 63 70 83 95 83 85
86 79 65 63 66 102 131 146 146 143 101 103 106 110 105 67 55 50 55 71 92 110 83 97 106 97 94 101 80 78 77 90
123 123 97 79 64 95 129 135 170 215 178 133 122 111 111 90 71 52 70 67 95 120 123 129 147 129 132 144 150 121 88 100
109 100 109 95 89 80 123 173 195 204 174 157 125 110 91 102 82 103 126 98 100 131 143 149 184 173 168 190 186 164 137 103
161 144 128 131 118 107 100 129 152 164 124 139 165 190 169 168 148 117 120 90 83 91 134 167 197 216 188 209 185 187 141 140
94 96 95 95 100 91 101 107 131 118 128 112 165 160 131 96 73 63 72 76 60 90 128 149 193 231 212 196 205 209 160 133
81 80 82 88 120 115 64 80 124 141 142 91 127 144 116 102 116 110 84 84 96 103 132 161 169 182 201 195 177 194 172 141
106 91 85 85 81 87 60 86 106 92 103 93 115 136 128 117 126 145 120 115 124 131 143 151 143 147 156 163 180 172 173 181
114 107 79 102 84 50 35 101 113 113 106 122 132 72 113 166 165 149 139 123 112 123 112 115 119 130 144 157 180 189 181 207
-13 62 97 86 100 79 52 102 118 109 100 121 122 127 137 206 198 137 141 120 116 123 109 132 146 142 142 158 181 175 171 184
112 39 42 78 104 138 124 99 127 113 91 103 144 131 130 159 188 139 131 134 120 134 137 148 146 143 143 163 176 164 169 187
191 105 70 86 122 124 112 110 72 86 89 102 164 160 137 141 183 152 137 139 127 148 149 136 145 156 161 180 176 167 173 178
152 245 228 192 154 122 134 130 71 83 94 87 115 159 155 158 186 156 153 154 155 146 151 149 138 135 157 169 169 194 182 174
68 101 164 189 228 233 198 116 93 70 110 125 136 182 235 190 185 185 158 174 164 147 156 153 125 122 136 145 142 163 159 140
40 31 27 46 34 105 169 173 113 70 95 147 157 183 191 200 180 167 179 167 154 159 155 127 115 112 117 135 156 190 208 201
104 -10 17 32 34 23 39 71 112 64 71 142 122 103 136 153 159 140 161 161 156 162 159 141 123 107 152 174 198 213 220 230
112 66 49 12 20 22 11 5 11 55 26 102 105 135 146 149 123 128 179 200 207 224 214 209 184 187 176 198 190 204 212 236
49 -7 -31 -28 -33 -28 -28 -7 -23 -8 21 86 103 112 119 162 184 169 198 252 338 307 235 218 226 202 180 218 244 246 264 322
32 71 38 52 77 94 88 79 14 -32 -12 29 63 104 84 105 151 173 235 309 347 326 294 272 274 251 247 290 339 319 354 369

GFSFLT1_con_3kmhel_234.txt.gz
Helicity
98 80 147 87 208 288 257 195 132 155 110 69 73 84 75 92 82 90 132 178 135 75 71 44 75 76 89 92 159 115 117 100
114 71 149 137 183 338 287 225 180 195 157 157 143 171 154 118 110 106 113 183 205 153 120 132 65 148 158 145 164 172 156 140
105 135 154 202 192 284 366 277 238 226 212 187 177 181 170 155 125 121 144 181 234 237 200 184 188 172 201 186 220 222 191 208
104 146 194 250 216 258 308 312 289 250 215 198 171 143 152 156 163 168 204 215 273 280 253 224 212 228 245 253 258 275 276 226
18 155 205 268 277 279 244 301 325 283 247 256 244 274 284 277 288 315 258 253 276 311 309 273 248 248 252 272 292 318 319 302
30 51 130 166 252 269 252 233 292 306 292 263 277 270 272 282 325 322 304 278 293 311 333 333 303 284 298 288 294 314 347 333
102 66 85 84 160 254 269 309 270 318 356 324 286 281 264 297 324 381 355 339 334 324 336 343 349 309 289 334 290 300 316 325
77 121 108 81 135 131 200 271 208 217 345 368 363 348 320 267 315 367 364 341 353 352 382 356 359 338 310 279 285 285 320 325
145 153 187 162 124 110 4 144 204 279 288 328 389 355 424 358 304 325 319 300 320 334 351 351 318 305 282 261 257 273 288 332
133 140 139 98 111 148 113 88 229 293 319 321 277 301 306 335 290 283 276 251 275 290 328 337 320 309 286 274 281 266 303 301
105 75 58 131 94 119 38 97 181 218 193 162 137 150 221 295 293 250 237 197 239 279 323 342 347 345 330 307 286 258 284 320
153 105 47 194 199 137 75 63 80 120 155 139 142 159 149 215 228 202 198 186 170 245 359 387 378 383 410 318 279 266 270 277
138 184 144 139 219 167 84 62 73 75 93 118 123 129 133 133 147 159 151 165 196 219 333 360 377 421 414 345 268 282 246 224
132 58 88 93 99 87 127 204 218 127 151 125 111 119 120 113 131 136 147 156 184 198 255 343 396 409 400 370 282 259 261 215
182 207 105 77 97 130 85 156 213 246 128 108 147 147 116 130 117 118 148 165 180 207 230 286 382 384 374 350 309 312 286 239
92 136 167 90 92 102 106 117 85 98 139 115 107 92 113 135 135 103 109 163 182 197 226 268 324 360 381 391 425 346 306 281
46 40 54 49 48 49 54 67 46 9 54 88 33 37 32 59 99 132 134 139 165 183 201 252 303 353 415 501 415 337 339 410
35 69 109 103 165 112 46 51 62 91 37 33 39 5 8 29 27 92 141 150 176 175 203 223 243 356 438 474 371 339 405 401
6 91 100 95 64 160 182 117 138 77 75 58 63 52 32 32 57 51 61 132 181 257 300 316 390 475 471 397 369 401 417 404

GFSFLT1_con_3kmhel_237.txt.gz
Helicity
178 198 334 430 401 352 296 263 229 185 115 85 91 107 106 125 94 123 130 113 73 56 63 105 81 63 96 110 154 139 123 125
182 264 306 456 480 431 334 297 267 238 177 139 108 160 184 151 165 104 171 182 163 107 106 109 141 126 122 147 155 149 139 179
120 235 276 497 527 459 399 329 357 302 234 185 150 175 180 172 157 165 159 219 233 205 166 179 178 174 190 192 202 221 188 229
50 162 330 382 581 505 445 410 401 361 305 269 204 202 181 173 160 176 207 261 285 269 246 226 241 240 216 245 253 249 223 250
76 151 289 376 528 526 492 471 461 449 410 360 327 274 279 270 238 212 215 275 339 337 329 319 290 306 272 282 320 318 314 278
92 112 144 233 518 549 550 535 528 490 498 379 348 315 255 255 259 221 231 264 306 383 388 373 353 364 332 334 358 362 381 345
73 69 90 149 272 478 557 534 499 449 469 425 333 291 289 289 313 319 313 332 338 397 440 427 385 376 377 392 385 369 372 372
18 99 103 107 150 316 463 432 404 391 427 429 412 372 340 331 365 396 373 372 399 402 483 451 451 428 403 388 381 353 375 378
208 -26 93 82 149 149 217 380 403 338 371 403 389 388 396 370 353 372 386 411 446 431 462 446 425 437 417 415 398 367 375 362
118 172 92 85 115 124 178 186 158 282 327 347 359 383 404 387 337 358 380 397 437 446 454 445 435 430 432 432 400 348 371 366
104 39 170 272 232 181 82 81 66 111 216 329 374 359 311 293 312 322 320 357 438 421 400 389 364 399 408 405 349 337 373 377
207 191 115 146 237 290 244 132 4 24 108 184 197 192 189 215 218 226 315 366 366 375 305 327 365 375 378 398 350 342 358 422
434 403 301 189 154 217 216 276 353 303 160 120 127 115 97 122 148 187 239 287 317 282 266 265 280 313 378 417 389 361 390 414
326 336 344 329 179 143 224 243 351 373 410 317 166 152 184 191 165 128 117 145 178 232 224 253 259 276 355 439 408 394 386 394
96 112 145 176 198 117 66 48 70 159 251 283 253 248 177 197 163 132 107 114 132 185 220 214 253 283 341 407 428 425 380 381
37 -39 41 -1 87 157 183 106 32 9 43 96 108 68 55 77 95 95 110 123 122 128 184 215 261 301 372 395 410 403 361 359
132 35 -52 19 86 35 65 217 194 59 10 39 32 56 33 30 64 90 60 71 100 141 154 186 227 279 330 404 449 438 375 408
154 108 147 93 -21 -19 -43 69 168 115 81 62 44 -22 -60 -30 9 43 69 71 53 70 111 178 215 233 252 321 384 416 441 465
233 183 193 236 214 91 -9 22 121 196 104 52 79 62 3 -7 20 37 47 49 61 66 66 79 126 195 230 277 334 421 518 562

GFSFLT1_con_3kmhel_240.txt.gz
Helicity
190 182 197 256 305 284 268 227 199 234 216 157 99 96 63 84 83 64 72 61 66 71 38 45 73 86 73 84 84 96 86 82
160 257 272 289 333 357 290 282 221 244 251 212 152 123 110 80 97 85 86 81 72 66 60 50 70 124 151 155 138 115 98 114
144 158 346 399 393 381 355 303 340 269 268 251 223 204 119 106 99 89 123 131 128 118 114 102 104 97 126 175 198 168 142 227
120 119 243 433 455 437 427 394 390 320 256 301 283 266 221 136 98 93 123 155 173 166 156 174 175 199 166 204 217 230 179 237
87 111 98 312 519 549 539 474 434 403 342 366 383 344 293 241 189 165 162 186 208 225 207 210 224 226 201 235 260 254 255 229
44 60 79 237 385 550 570 544 474 409 458 430 421 374 308 294 291 243 232 243 258 271 272 281 269 294 247 257 276 295 312 262
209 100 45 64 294 455 551 580 549 493 469 461 415 356 326 379 371 335 315 315 318 308 316 333 327 326 326 331 329 313 313 329
273 186 103 103 191 379 499 533 528 462 467 475 431 338 347 364 386 394 339 345 369 337 365 360 390 401 384 376 352 334 352 328
46 77 -41 -59 82 270 412 514 457 528 502 451 376 321 371 345 332 341 341 335 340 322 351 359 372 393 399 429 417 368 323 347
41 78 42 63 29 115 218 346 414 462 487 440 340 316 320 333 334 333 322 315 316 301 316 330 358 386 391 410 425 362 351 337
337 275 282 208 182 198 172 248 317 337 366 383 393 328 320 331 309 314 313 297 294 302 314 334 363 400 396 401 389 353 345 333
422 423 314 282 246 298 295 282 224 217 212 288 330 312 281 239 190 180 198 226 281 268 316 341 369 381 387 381 370 341 349 325
330 342 370 277 262 234 240 267 349 279 302 263 206 193 192 198 194 190 209 221 222 242 258 320 332 317 334 368 361 349 356 337
34 139 181 270 331 330 329 252 173 194 300 276 318 358 266 231 216 202 200 199 192 186 183 247 274 274 307 329 338 334 321 332
-97 30 102 190 192 272 274 244 253 207 152 183 237 225 211 179 204 265 276 243 237 210 185 166 184 213 234 260 298 299 303 318
-60 -43 53 80 91 161 248 269 175 177 120 108 121 138 145 131 128 140 134 143 174 166 157 130 130 142 168 207 261 284 292 303
144 141 103 -67 20 74 112 160 276 236 157 111 85 93 88 77 82 94 55 43 34 45 107 105 94 129 150 163 241 282 289 304
62 56 135 175 81 33 54 75 42 140 166 186 183 73 25 29 4 -9 4 -29 -33 19 19 22 55 56 47 109 188 270 272 287
89 52 11 33 40 66 48 40 49 35 55 111 139 197 88 23 26 32 8 1 -23 -34 -10 5 18 33 31 27 68 177 194 250

GFSFLT1_con_3kmhel_246.txt.gz
Helicity
162 99 156 250 302 318 324 288 218 192 174 185 164 138 77 96 89 88 84 52 44 39 12 34 46 6 -33 -27 -19 -24 -28 -34
147 110 94 226 258 294 283 323 338 312 262 242 191 193 170 146 114 92 94 103 101 82 51 28 48 44 38 40 27 2 -15 97
162 136 103 156 282 360 341 300 334 394 344 276 247 221 168 184 174 125 123 135 133 132 123 110 107 96 79 99 108 85 70 134
186 129 114 62 158 290 355 358 351 360 351 422 366 245 206 195 160 144 129 172 174 160 149 161 153 155 129 160 162 155 112 137
139 191 205 131 81 150 274 346 376 355 376 409 416 410 279 230 228 217 187 208 210 195 183 182 193 191 151 176 206 194 186 161
238 283 195 246 192 165 146 239 326 360 386 416 455 428 349 259 215 183 219 229 221 216 201 213 198 196 156 171 208 220 222 199
242 340 307 261 243 253 187 123 250 329 411 406 405 371 360 348 307 258 235 280 245 209 222 218 206 198 192 216 246 258 252 242
368 506 512 364 295 246 246 208 160 261 327 411 397 336 337 351 385 383 281 208 252 224 244 242 255 237 241 257 264 264 287 292
327 433 570 577 492 303 327 361 175 191 250 294 351 323 337 324 321 335 360 344 244 200 233 213 189 208 244 284 300 284 285 307
197 189 400 625 588 500 387 412 553 318 97 142 163 180 182 219 225 251 271 268 325 276 215 205 208 206 232 259 287 277 284 278
54 48 27 200 538 582 529 507 554 521 380 114 123 151 173 177 178 167 136 150 139 197 270 170 114 151 187 231 227 233 253 265
-91 -96 -134 -144 16 314 494 549 579 608 494 296 153 120 143 173 206 215 236 129 140 129 60 101 132 128 159 181 191 189 205 228
-46 -132 -147 -203 -108 85 255 281 340 454 488 488 447 325 185 128 143 171 225 244 274 367 220 22 115 99 115 167 177 214 248 250
5 30 -53 -121 -141 -101 -2 75 153 142 213 270 469 641 512 375 299 214 99 86 297 23 214 283 135 -24 110 75 167 193 227 244
-23 -21 -11 26 -11 -80 -109 -123 -24 58 81 189 147 242 336 348 358 336 316 228 135 65 82 174 197 125 141 41 99 160 175 196
-51 -54 -52 -51 -19 5 -26 -50 -128 -85 19 1 132 136 118 115 128 205 191 184 201 163 111 56 76 115 130 142 141 137 176 190
-49 -68 -64 -67 -57 -89 -51 -11 -51 -121 -81 -86 -86 -16 34 73 73 83 105 132 123 104 90 60 97 78 78 74 91 135 135 129
-25 -63 -126 -102 -67 -74 -95 -59 -63 -55 -88 -104 -95 -81 -50 -37 -23 -3 79 70 93 100 97 60 42 17 15 42 67 90 110 107
-16 -50 -98 -129 -159 -80 -31 -81 -140 -94 -70 -53 -33 -49 -55 -32 -28 -36 -27 2 45 47 67 69 27 15 -4 -1 42 66 68 73